This demonstration page uses our WeatherBlox Daily Observations layout. Learn more.

Hourly Observations for November 19, 2015

Temp ( °F °C ) Dew Point ( °F °C ) Humidity (%) Winds ( mph kmh ) Pressure ( in mb ) Visibility ( mi km ) Precip ( " mm )
12:15 am 00:15 Clear 34 1 23 -5 65 65 NW 10 17 30.12 1020 10 16.09344 0 0
12:35 am 00:35 Clear 34 1 23 -5 65 65 NW 8 13 30.12 1020 10 16.09344 0 0
12:55 am 00:55 Clear 32 0 23 -5 69 69 NW 7 11 30.12 1020 10 16.09344 0 0
1:15 am 01:15 Clear 32 0 21 -6 64 64 WNW 8 13 30.12 1020 10 16.09344 0 0
1:35 am 01:35 Clear 32 0 23 -5 69 69 W 8 13 30.18 1022 10 16.09344 0 0
1:55 am 01:55 Clear 30 -1 23 -5 75 75 WSW 7 11 30.18 1022 10 16.09344 0 0
2:15 am 02:15 Clear 30 -1 23 -5 75 75 W 8 13 30.18 1022 10 16.09344 0 0
2:35 am 02:35 Clear 30 -1 23 -5 75 75 W 8 13 30.21 1023 10 16.09344 0 0
2:55 am 02:55 Clear 30 -1 23 -5 75 75 W 6 9 30.21 1023 10 16.09344 0 0
3:15 am 03:15 Clear 30 -1 23 -5 75 75 WNW 7 11 30.21 1023 10 16.09344 0 0
3:35 am 03:35 Clear 28 -2 21 -6 74 74 WNW 7 11 30.21 1023 10 16.09344 0 0
3:55 am 03:55 Clear 30 -1 21 -6 69 69 WNW 3 6 30.21 1023 10 16.09344 0 0
4:15 am 04:15 Clear 30 -1 21 -6 69 69 W 9 15 30.21 1023 10 16.09344 0 0
4:35 am 04:35 Clear 28 -2 21 -6 74 74 WNW 6 9 30.21 1023 10 16.09344 0 0
4:55 am 04:55 Clear 28 -2 21 -6 74 74 W 6 9 30.24 1024 10 16.09344 0 0
5:15 am 05:15 Clear 28 -2 21 -6 74 74 W 7 11 30.24 1024 10 16.09344 0 0
5:35 am 05:35 Clear 28 -2 21 -6 74 74 W 6 9 30.24 1024 10 16.09344 0 0
5:55 am 05:55 Clear 27 -3 21 -6 80 80 W 6 9 30.27 1025 10 16.09344 0 0
6:15 am 06:15 Clear 28 -2 21 -6 74 74 WNW 5 7 30.24 1024 10 16.09344 0 0
6:35 am 06:35 Clear 28 -2 19 -7 69 69 WNW 5 7 30.24 1024 10 16.09344 0 0
6:55 am 06:55 Clear 27 -3 21 -6 80 80 W 6 9 30.27 1025 10 16.09344 0 0
7:15 am 07:15 Clear 25 -4 19 -7 80 80 W 5 7 30.3 1026 10 16.09344 0 0
7:35 am 07:35 Sunny 27 -3 19 -7 74 74 W 7 11 30.3 1026 10 16.09344 0 0
7:55 am 07:55 Sunny 28 -2 21 -6 74 74 W 7 11 30.27 1025 10 16.09344 0 0
8:15 am 08:15 Sunny 28 -2 21 -6 74 74 W 7 11 30.27 1025 10 16.09344 0 0
8:35 am 08:35 Sunny 30 -1 21 -6 69 69 W 7 11 30.3 1026 10 16.09344 0 0
8:55 am 08:55 Sunny 32 0 23 -5 69 69 W 6 9 30.3 1026 10 16.09344 0 0
9:15 am 09:15 Sunny 34 1 21 -6 60 60 W 6 9 30.3 1026 10 16.09344 0 0
9:35 am 09:35 Sunny 34 1 23 -5 65 65 W 8 13 30.3 1026 10 16.09344 0 0
9:55 am 09:55 Sunny 36 2 21 -6 56 56 W 8 13 30.27 1025 10 16.09344 0 0
10:15 am 10:15 Sunny 37 3 23 -5 56 56 W 7 11 30.27 1025 10 16.09344 0 0
10:35 am 10:35 Sunny 39 4 21 -6 48 48 W 10 17 30.27 1025 10 16.09344 0 0
10:55 am 10:55 Sunny 39 4 21 -6 48 48 W 8 13 30.27 1025 10 16.09344 0 0
11:15 am 11:15 Sunny 41 5 21 -6 45 45 WSW 8 13 30.24 1024 10 16.09344 0 0
11:35 am 11:35 Sunny 41 5 21 -6 45 45 W 8 13 30.24 1024 10 16.09344 0 0
11:55 am 11:55 Sunny 43 6 18 -8 36 36 W 9 15 30.24 1024 10 16.09344 0 0
12:15 pm 12:15 Sunny 43 6 16 -9 34 34 W 10 17 30.24 1024 10 16.09344 0 0
12:35 pm 12:35 Sunny 45 7 16 -9 31 31 W 9 15 30.24 1024 10 16.09344 0 0
12:55 pm 12:55 Sunny 45 7 16 -9 31 31 W 8 13 30.24 1024 10 16.09344 0 0
1:15 pm 13:15 Sunny 45 7 18 -8 34 34 W 8 13 30.21 1023 10 16.09344 0 0
1:35 pm 13:35 Sunny 45 7 18 -8 34 34 W 6 9 30.21 1023 10 16.09344 0 0
1:55 pm 13:55 Sunny 45 7 18 -8 34 34 W 9 15 30.21 1023 10 16.09344 0 0
2:15 pm 14:15 Sunny 45 7 18 -8 34 34 W 7 11 30.18 1022 10 16.09344 0 0
2:35 pm 14:35 Sunny 45 7 19 -7 37 37 W 6 9 30.18 1022 10 16.09344 0 0
2:55 pm 14:55 Sunny 45 7 16 -9 31 31 W 8 13 30.18 1022 10 16.09344 0 0
3:15 pm 15:15 Sunny 45 7 16 -9 31 31 WSW 7 11 30.18 1022 10 16.09344 0 0
3:35 pm 15:35 Sunny 45 7 16 -9 31 31 WSW 5 7 30.18 1022 10 16.09344 0 0
3:55 pm 15:55 Sunny 45 7 16 -9 31 31 WSW 7 11 30.18 1022 10 16.09344 0 0
4:15 pm 16:15 Sunny 43 6 16 -9 34 34 WSW 5 7 30.18 1022 10 16.09344 0 0
4:35 pm 16:35 Sunny 41 5 16 -9 36 36 SW 5 7 30.18 1022 10 16.09344 0 0
4:55 pm 16:55 Mostly Cloudy 41 5 18 -8 39 39 SW 3 6 30.18 1022 10 16.09344 0 0
5:15 pm 17:15 Cloudy 39 4 19 -7 45 45 Calm 30.18 1022 10 16.09344 0 0
5:35 pm 17:35 Cloudy 41 5 18 -8 39 39 Calm 30.18 1022 10 16.09344 0 0
5:55 pm 17:55 Cloudy 39 4 23 -5 52 52 Calm 30.18 1022 10 16.09344 0 0
6:15 pm 18:15 Cloudy 37 3 27 -3 65 65 Calm 30.21 1023 10 16.09344 0 0
6:35 pm 18:35 Cloudy 37 3 25 -4 60 60 Calm 30.21 1023 10 16.09344 0 0
6:55 pm 18:55 Cloudy 37 3 27 -3 65 65 SSE 5 7 30.21 1023 10 16.09344 0 0
7:15 pm 19:15 Cloudy 37 3 25 -4 60 60 Calm 30.21 1023 10 16.09344 0 0
7:35 pm 19:35 Cloudy 37 3 27 -3 65 65 SE 5 7 30.21 1023 10 16.09344 0 0
7:55 pm 19:55 Cloudy 36 2 27 -3 70 70 SE 5 7 30.21 1023 10 16.09344 0 0
8:15 pm 20:15 Cloudy 37 3 25 -4 60 60 SE 6 9 30.21 1023 10 16.09344 0 0
8:35 pm 20:35 Cloudy 37 3 27 -3 65 65 SE 6 9 30.21 1023 10 16.09344 0 0
8:55 pm 20:55 Cloudy 37 3 27 -3 65 65 SSE 6 9 30.21 1023 10 16.09344 0 0
9:15 pm 21:15 Cloudy 37 3 27 -3 65 65 SSE 7 11 30.21 1023 10 16.09344 0 0
9:35 pm 21:35 Cloudy 37 3 27 -3 65 65 SSE 8 13 30.21 1023 10 16.09344 0 0
9:55 pm 21:55 Cloudy 37 3 27 -3 65 65 SSE 9 15 30.21 1023 10 16.09344 0 0
10:15 pm 22:15 Cloudy 37 3 27 -3 65 65 SSE 7 11 30.21 1023 10 16.09344 0 0
10:35 pm 22:35 Mostly Cloudy 36 2 27 -3 70 70 SSE 6 9 30.21 1023 10 16.09344 0 0
10:55 pm 22:55 Mostly Cloudy 36 2 27 -3 70 70 SSE 8 13 30.18 1022 10 16.09344 0 0
11:15 pm 23:15 Mostly Cloudy 36 2 27 -3 70 70 SSE 8 13 30.18 1022 10 16.09344 0 0
11:35 pm 23:35 Partly Cloudy 34 1 27 -3 75 75 SE 10 17 30.18 1022 10 16.09344 0 0
11:55 pm 23:55 Clear 34 1 25 -4 70 70 SSE 9 15 30.15 1021 10 16.09344 0 0

Powered by AerisWeather